Regional Weather Roundup
Issued by NWS

Home | Current Version | Previous Version | Graphics & Text | Print | Product List | Glossary On
Versions: 1 2 3 4 5 6 7 8 9 10 11 12 13 14 15 16 17 18 19 20 21 22 23 24 25 26 27 28 29 30 31 32 33 34 35 36 37 38 39 40 41 42 43 44 45 46 47 48 49 50
000
ASUS45 KCYS 101910
RWRWY

WYOMING REGIONAL WEATHER ROUNDUP
NATIONAL WEATHER SERVICE CHEYENNE WY
1200 PM MST WED FEB 10 2016

NOTE:  "FAIR" INDICATES FEW OR NO CLOUDS BELOW 12,000 FEET
WITH NO SIGNIFICANT WEATHER AND/OR OBSTRUCTIONS TO VISIBILITY.

WYZ001-102000-
YELLOWSTONE NATIONAL PARK

CITY           SKY/WX    TMP DP  RH WIND       PRES   REMARKS
LK YELLOWSTONE   N/A     23  14  68 CALM      30.37S
W YELLOWSTONE  NOT AVBL

$$
WYZ002>013-054>058-071-098>099-102000-
NORTHERN WYOMING

CITY           SKY/WX    TMP DP  RH WIND       PRES   REMARKS
JACKSON        PTSUNNY   14  12  92 CALM      30.42S
CODY           FAIR      61  16  17 W15G25    30.12R
GREYBULL       NOT AVBL
WORLAND        NOT AVBL
SHERIDAN       PTSUNNY   59  16  18 NW10      30.02F
BUFFALO        FAIR      56  22  26 N12       30.07F
GILLETTE       FAIR      55  22  27 NW23G32   30.04S
HULETT         FAIR      54  21  28 NW9G20    30.02F
NEWCASTLE      FAIR      54  14  20 NW26G32   30.01F

$$
WYZ014>020-022>026-101>103-102000-
CENTRAL WYOMING

CITY           SKY/WX    TMP DP  RH WIND       PRES   REMARKS
BIG PINEY      NOT AVBL
PINEDALE       FAIR      36  16  44 NW3       30.35S
DUBOIS         FAIR      48   5  17 NW21G26   30.24F
LANDER         NOT AVBL
RIVERTON       NOT AVBL
CASPER         FAIR      41  22  46 SW20G30   30.14F
DOUGLAS          N/A     52  26  36 NW15        N/A

$$
WYZ021-027>030-104>119-102000-
SOUTHERN WYOMING

CITY           SKY/WX    TMP DP  RH WIND       PRES   REMARKS
EVANSTON       NOT AVBL
KEMMERER       FAIR      36  19  51 W8        30.38F WCI  29
FORT BRIDGER   CLEAR     43  19  39 W18       30.40S
ROCK SPRINGS   NOT AVBL
DIXON          FAIR      27  16  62 CALM      30.40F
RAWLINS        FAIR      41  19  41 W28G39    30.25F
SARATOGA       FAIR      45  19  36 S7G18     30.28F
LARAMIE        FAIR      46  21  37 W18G29    30.19F
CHEYENNE       FAIR      55  19  24 W26G37    30.13F
TORRINGTON     FAIR      59  20  22 NW21G26   30.05S
PINE BLUFFS    FAIR      57  23  26 W22G29    30.08F

$$



USA.gov is the U.S. government's official web portal to all federal, state and local government web resources and services.